www.pogodaiklimat.ru

Погода и климат >> Архив погоды >> Финляндия >> Хювинкяа


ПОГОДА в Хювинкяа

  • Прогноз погоды в Хювинкяа
  • Монитор погоды в Хювинкяа

АРХИВ ПОГОДЫ в Хювинкяа

Время (UTC), дата Ветер
(напр.,м/с)
 
Видим.   Явления Облачность Т
(С)
Тd
(С)
f
(%)
Тe
(С)
Тes
(С)
Комфортность P
(гПа)
Po
(гПа)
Тmin
(С)
Tmax
(С)
R
(мм)
R24
(мм)
S
(см)
04 12.06 50 км 9/0
[]
+10.7 +4.8 67 1025.2 1014.4
05 12.06 45 км 9/4 1000 м
[]
+11.4 +5.1 65 1025.6 1014.8
06 12.06 45 км 9/9
[]
+12.7 +5.0 59 1025.6 1014.9 +10.2 +19.3
07 12.06 45 км 5/0
[]
+14.2 +5.4 55 1025.7 1015.0
08 12.06 40 км 9/0
[]
+15.9 +6.5 54 1025.6 1015.0
09 12.06 40 км 8/0
[]
+16.6 +6.2 50 1025.9 1015.3
10 12.06 45 км 4/3
[]
+17.4 +5.9 47 1025.9 1015.3
11 12.06 45 км 1/1
[]
+18.3 +5.9 44 1025.6 1015.1
12 12.06 50 км ясно +18.0 +6.2 46 1025.5 1014.9
13 12.06 45 км 1/0
[]
+17.9 +4.1 40 1025.4 1014.8
14 12.06 40 км ясно +18.7 +4.9 40 1025.1 1014.5
15 12.06 50 км ясно +18.7 +4.8 40 1024.5 1014.0
16 12.06 45 км 9/0
[]
+17.5 +4.2 41 1024.3 1013.7
17 12.06 50 км 9/3
[]
+16.1 +5.7 50 1024.7 1014.1
18 12.06 50 км 9/9
[]
+14.5 +4.0 49 1025.0 1014.3 +12.7 +19.2
19 12.06 50 км 9/9
[]
+13.7 +3.5 50 1024.9 1014.2
20 12.06 50 км 9/6
[]
+13.1 +3.9 54 1025.2 1014.5
21 12.06 50 км 9/9
[]
+12.5 +4.0 56 1025.4 1014.7
22 12.06 50 км 9/9
[]
+12.1 +4.1 58 1025.2 1014.4
23 12.06 50 км 9/9
[]
+11.3 +2.7 55 1025.1 1014.3
00 13.06 50 км 8/8
[]
+10.5 +2.8 59 1024.8 1013.9
01 13.06 50 км 4/1 1000 м
[]
+9.9 +3.1 63 1024.5 1013.7
02 13.06 50 км 6/6
[]
+9.6 +3.3 65 1023.9 1013.1
03 13.06 50 км 4/4
[]
+10.4 +4.9 69 1023.4 1012.6
04 13.06 50 км 3/3
[]
+11.4 +6.0 69 1023.0 1012.2
05 13.06 40 км 3/3
[]
+13.1 +6.5 64 1021.2 1010.5
06 13.06 45 км 1/1
[]
+13.8 +7.0 64 1021.1 1010.4 +9.4 +14.5
07 13.06 40 км 9/4 1000 м
[]
+14.8 +8.1 64 1021.0 1010.4
08 13.06 50 км 10/10 600 м
[]
+14.5 +8.5 67 1021.7 1011.0
09 13.06 45 км 10/10 600 м
[]
+14.6 +8.8 68 1020.6 1010.0
10 13.06 40 км 9/9 600 м
[]
+16.6 +10.0 65 1020.3 1009.8
11 13.06 40 км 10/10 600 м
[]
+16.0 +9.8 67 1020.2 1009.6
12 13.06 35 км слаб. ливневой дождь 10/10 600 м
[]
+15.7 +10.3 70 1020.3 1009.7
13 13.06 17 км ливневой дождь 9/9 600 м
[]
+13.8 +12.2 90 1019.7 1009.0
14 13.06 35 км в посл. час дождь 9/4 600 м
[]
+14.9 +12.9 88 1018.6 1008.0 0.9
15 13.06 40 км 8/3 600 м
[]
+16.8 +11.8 72 1018.1 1007.6
16 13.06 40 км 8/5 600 м
[]
+16.3 +11.9 75 1018.3 1007.7
17 13.06 45 км 9/0 600 м
[]
+16.1 +11.4 74 1017.8 1007.2
18 13.06 16 км дождь 9/8 600 м
[]
+14.3 +11.8 85 1016.7 1006.1 +13.7 +17.2 2
19 13.06 45 км слаб. дождь 9/8 600 м
[]
+14.1 +11.7 85 1016.2 1005.6
20 13.06 45 км 6/3 600 м
[]
+14.3 +11.8 85 1016.1 1005.5
21 13.06 45 км 6/4 300 м
[]
+14.1 +12.3 89 1016.7 1006.1
22 13.06 40 км 8/8 1000 м
[]
+14.3 +12.4 88 1016.3 1005.8
23 13.06 45 км ясно +14.2 +12.4 89 1015.8 1005.2
00 14.06 40 км 9/6 300 м
[]
+13.8 +12.3 91 1015.2 1004.6
01 14.06 35 км 5/4 300 м
[]
+13.1 +12.0 93 1015.1 1004.5
02 14.06 40 км 9/9 300 м
[]
+12.6 +11.9 95 1015.5 1004.9
03 14.06 40 км 10/10 200 м
[]
+13.5 +12.1 91 1015.4 1004.8
04 14.06 40 км 10/10 200 м
[]
+14.1 +12.5 90 1015.1 1004.5
05 14.06 12 км 10/0 200 м
[]
+14.3 +12.7 90 1015.4 1004.8
06 14.06 20 км 10/10 200 м
[]
+15.1 +13.2 88 1015.1 1004.5 +12.5 +15.1 0.4
07 14.06 30 км 10/0 200 м
[]
+15.8 +13.4 86 1015.3 1004.8
08 14.06 30 км 10/10 300 м
[]
+16.3 +13.6 84 1015.6 1005.1
09 14.06 25 км 10/10 300 м
[]
+17.2 +14.3 83 1016.1 1005.6
10 14.06 19 км 10/10 300 м
[]
+17.3 +14.6 84 1016.2 1005.7
11 14.06 13 км 10/10 200 м
[]
+17.2 +14.9 86 1016.4 1005.9
12 14.06 9000 м 10/10 100 м
[]
+15.8 +14.6 93 1016.6 1006.0
13 14.06 10 км 10/10 100 м
[]
+15.5 +14.2 92 1016.4 1005.9
14 14.06 16 км 10/0 200 м
[]
+16.0 +14.2 89 1016.2 1005.6
15 14.06 14 км 10/10 200 м
[]
+15.3 +13.9 91 1016.2 1005.7
16 14.06 6000 м дымка 10/10 100 м
[]
+14.9 +14.0 94 1016.0 1005.4
17 14.06 4500 м слаб. ливневой дождь 10/0 100 м
[]
+14.8 +14.4 97 1015.7 1005.1 0.1
18 14.06 2700 м дымка 10/10 100 м
[]
+15.0 +14.8 99 1015.5 1004.9 +14.8 +17.6 0.1
19 14.06 2200 м дымка 10/10 100 м
[]
+15.3 +15.0 98 1015.8 1005.2
20 14.06 5000 м дымка 10/10 100 м
[]
+15.3 +15.1 99 1016.0 1005.4
21 14.06 21 км 10/10 100 м
[]
+14.1 +13.2 94 1016.4 1005.8
22 14.06 26 км 10/10 200 м
[]
+13.8 +12.6 92 1016.5 1005.9
23 14.06 45 км 9/0 300 м
[]
+13.5 +11.6 88 1016.1 1005.5
00 15.06 40 км 10/10 300 м
[]
+13.1 +11.3 89 1016.6 1005.9
01 15.06 40 км 10/10 200 м
[]
+12.5 +11.0 91 1016.6 1006.0
02 15.06 40 км 10/10 300 м
[]
+12.1 +10.5 90 1016.5 1005.8
03 15.06 40 км 10/10 200 м
[]
+12.1 +10.5 90 1016.8 1006.1
04 15.06 40 км 10/0 200 м
[]
+12.1 +10.6 91 1016.7 1006.0
05 15.06 45 км 10/10 300 м
[]
+12.7 +10.6 87 1016.8 1006.2
06 15.06 45 км 9/9 300 м
[]
+13.3 +10.5 83 1016.7 1006.1 +12.1 +15.3 0.1
07 15.06 40 км 9/9 300 м
[]
+13.8 +11.0 83 1016.8 1006.2
08 15.06 45 км 9/9 300 м
[]
+14.8 +10.9 77 1017.0 1006.4
09 15.06 40 км 9/9 300 м
[]
+15.3 +11.3 77 1017.3 1006.7
10 15.06 45 км 9/9 300 м
[]
+16.9 +12.0 73 1017.2 1006.7
11 15.06 35 км 5/5 600 м
[]
+18.5 +12.5 68 1016.9 1006.4
12 15.06 30 км 1/1 600 м
[]
+19.2 +12.2 64 1016.5 1006.1
13 15.06 35 км 6/6 600 м
[]
+20.6 +12.5 60 1016.5 1006.1
14 15.06 40 км 8/0 1000 м
[]
+21.0 +12.1 57 1016.2 1005.9
15 15.06 40 км 5/5 1000 м
[]
+20.2 +13.0 63 1016.1 1005.7
16 15.06 35 км 1/1 1000 м
[]
+20.9 +12.4 58 1015.9 1005.5
17 15.06 35 км 4/4 1000 м
[]
+19.4 +13.0 66 1016.0 1005.6
18 15.06 45 км ясно +17.9 +12.8 72 1016.1 1005.6 +13.2 +21.6
19 15.06 50 км ясно +16.4 +12.3 77 1016.4 1005.9
20 15.06 50 км ясно +15.0 +11.7 81 1016.5 1006.0
21 15.06 40 км ясно +12.1 +11.3 95 1016.6 1005.9
22 15.06 35 км 5/5 1000 м
[]
+11.3 +11.0 98 1016.6 1005.8
23 15.06 24 км 3/0 1000 м
[]
+10.7 +10.4 98 1016.6 1005.9
00 16.06 24 км ясно +9.5 +9.3 99 1016.8 1006.0
01 16.06 30 км ясно +8.8 +8.6 99 1017.0 1006.2
02 16.06 30 км 9/9 600 м
[]
+9.6 +9.4 99 1016.7 1005.9
03 16.06 50 км ясно +9.9 +9.7 99 1016.2 1005.4
04 16.06 40 км ясно +11.9 +11.1 95 1016.2 1005.5
05 16.06 40 км ясно +15.1 +12.1 82 1016.1 1005.6
06 16.06 40 км ясно +18.0 +12.9 72 1015.8 1005.4 +8.8 +18.0
07 16.06 40 км 1/0 600 м
[]
+19.2 +14.1 72 1015.6 1005.2
08 16.06 40 км 3/3 1500 м
[]
+19.9 +12.9 64 1015.2 1004.8
09 16.06 35 км 6/6 1000 м
[]
+21.1 +12.6 58 1014.9 1004.6
10 16.06 45 км 6/6 1000 м
[]
+22.3 +11.8 51 1014.5 1004.2
11 16.06 45 км 6/6 1500 м
[]
+22.9 +12.1 51 1014.0 1003.8
12 16.06 40 км 9/9 1500 м
[]
+23.1 +11.8 49 1013.5 1003.3
13 16.06 40 км 9/9 1500 м
[]
+23.7 +12.2 48 1013.4 1003.1
14 16.06 40 км 5/0 1500 м
[]
+24.6 +11.5 44 1012.9 1002.7
15 16.06 45 км 6/6 2000 м
[]
+23.8 +11.7 47 1012.5 1002.3
16 16.06 40 км 3/3 2000 м
[]
+24.9 +11.9 44 1012.3 1002.2
17 16.06 40 км 1/0 1500 м
[]
+23.9 +10.4 43 1012.2 1002.0
18 16.06 40 км ясно +22.3 +8.9 42 1012.4 1002.1 +18.0 +25.0
19 16.06 50 км ясно +20.8 +9.0 47 1012.6 1002.3
20 16.06 50 км ясно +18.5 +8.9 54 1012.9 1002.5
21 16.06 45 км ясно +14.6 +9.8 73 1013.1 1002.6
22 16.06 50 км ясно +15.4 +9.1 66 1013.5 1002.9
23 16.06 50 км ясно +11.9 +9.7 86 1013.7 1003.0
00 17.06 50 км ясно +10.4 +9.4 94 1013.8 1003.0
01 17.06 50 км ясно +9.8 +9.1 95 1013.6 1002.9
02 17.06 45 км ясно +9.5 +8.8 95 1013.7 1002.9
03 17.06 50 км ясно +11.4 +9.8 90 1013.7 1003.0
04 17.06 50 км ясно +14.0 +10.2 78 1013.1 1002.5
05 17.06 45 км ясно +17.4 +9.7 61 1012.8 1002.4
06 17.06 40 км ясно +20.2 +10.6 54 1012.4 1002.1 +9.4 +22.3
07 17.06 35 км ясно +21.8 +12.8 57 1012.3 1002.0
08 17.06 40 км 9/9 2000 м
[]
+22.8 +13.6 56 1012.1 1001.9
09 17.06 40 км 4/4 2000 м
[]
+23.9 +13.9 54 1012.0 1001.7
10 17.06 45 км 9/9
[]
+24.6 +12.5 47 1011.6 1001.4
11 17.06 30 км 3/0 1500 м
[]
+25.6 +11.6 42 1011.5 1001.4
12 17.06 35 км слаб. ливневой дождь 8/8
[]
+25.1 +13.6 49 1011.4 1001.2
13 17.06 30 км слаб. ливневой дождь 9/8 1500 м
[]
+23.2 +14.0 56 1011.6 1001.4
14 17.06 45 км 9/6 2000 м
[]
+24.1 +12.3 48 1011.7 1001.5
15 17.06 40 км слаб. ливневой дождь 9/9
[]
+22.2 +12.9 56 1011.8 1001.6
16 17.06 35 км 6/6
[]
+23.9 +13.0 50 1011.4 1001.2
17 17.06 45 км 8/6
[]
+23.4 +12.8 51 1011.2 1001.0
18 17.06 45 км 9/0
[]
+21.9 +9.9 46 1011.3 1001.0 +20.2 +26.5
19 17.06 50 км ясно +19.7 +7.9 46 1011.6 1001.3
20 17.06 50 км ясно +17.5 +7.5 52 1012.2 1001.8
21 17.06 50 км ясно +13.3 +8.6 73 1012.5 1001.9
22 17.06 45 км ясно +13.1 +8.5 74 1012.7 1002.1
23 17.06 50 км ясно +11.0 +8.7 86 1012.7 1002.0
00 18.06 45 км ясно +10.1 +8.5 90 1012.8 1002.1
01 18.06 45 км ясно +10.7 +9.1 90 1012.7 1002.0
02 18.06 45 км ясно +12.6 +9.8 83 1012.5 1001.9
03 18.06 40 км ясно +13.8 +10.3 79 1012.9 1002.3
04 18.06 45 км ясно +15.6 +10.8 73 1013.0 1002.5
05 18.06 45 км ясно +17.5 +11.5 68 1013.3 1002.8
06 18.06 35 км ясно +19.4 +11.8 61 1013.5 1003.1 +9.8 +21.9
07 18.06 45 км ясно +20.9 +12.8 60 1013.6 1003.2
08 18.06 35 км ясно +22.8 +11.4 49 1013.6 1003.3
09 18.06 45 км ясно +23.2 +10.7 45 1013.8 1003.5
10 18.06 24 км ясно +24.0 +10.5 43 1013.8 1003.6
11 18.06 35 км ясно +24.6 +10.8 42 1013.8 1003.6
12 18.06 35 км ясно +24.5 +10.4 41 1013.9 1003.6
13 18.06 35 км ясно +25.6 +11.7 42 1013.9 1003.7
14 18.06 35 км ясно +25.9 +11.2 40 1014.0 1003.8
15 18.06 40 км ясно +25.1 +10.2 39 1013.9 1003.8
16 18.06 50 км ясно +25.1 +9.1 36 1013.8 1003.6
17 18.06 50 км ясно +24.4 +9.9 40 1013.7 1003.5
18 18.06 40 км 3/0
[]
+21.8 +12.5 55 1013.9 1003.6 +19.4 +25.9
19 18.06 45 км ясно +20.4 +12.2 59 1014.1 1003.8
20 18.06 50 км ясно +18.5 +11.0 62 1014.6 1004.2
21 18.06 50 км ясно +16.2 +10.9 71 1015.1 1004.6
22 18.06 45 км ясно +14.9 +11.2 79 1015.3 1004.7
23 18.06 40 км ясно +13.7 +11.4 86 1015.1 1004.5
00 19.06 25 км ясно +12.5 +11.6 94 1015.4 1004.7
01 19.06 27 км 5/5
[]
+12.6 +11.9 95 1015.3 1004.7
02 19.06 30 км 9/9
[]
+13.1 +11.8 92 1015.4 1004.8
03 19.06 25 км ясно +13.3 +12.0 92 1015.2 1004.6
04 19.06 35 км ясно +14.9 +12.5 86 1014.9 1004.4

 

Местоположение метеостанции Хювинкяа (Финляндия): широта 60.60 долгота 24.80 высота над уровнем моря 86 м.

В архиве по умолчанию представлена погода в Хювинкяа за последнюю неделю. Архивные данные за месяц целиком и за предыдущие месяцы, начиная с января 2011 года, Вы можете получить, выбрав интересующий диапазон дат из раскрывающегося списка и нажав кнопку "Ввод!".


*Определитесь, кто Вы:
робот инопланетянин человек

Внимание! Время в таблицах - всемирное. Для получения местного времени необходимо прибавить поправку, которая равна 1 ч.

Смотрите также архив погоды в соседних городах и на ближайших метеорологических станциях:

Погода в Нурмиярви (Финляндия) (13 км)
Погода на Острове Синго (Финляндия) (22 км)
Погода в Вихти (Финляндия) (30 км)
Погода в Хельсинки (Финляндия) (31 км)
Погода в Эспо Нууксио (Финляндия) (37 км)
Погода в Хельсинки университете (Финляндия) (45 км)
Погода в Эспо Тапиола (Финляндия) (47 км)
Погода в Хельсинки Кайсаниеми (Финляндия) (47 км)
Погода в Хямеэнлинна (Финляндия) (48 км)
Погода в Порвоо (Финляндия) (50 км)

Пояснения к столбцам:

Ветер - указаны скорость ветра в м/с - средняя за 10 мин, порывы в срок и между сроками (в фигурных скобках) и направление, откуда дует ветер: С - северный, СВ - северо-восточный, В - восточный, ЮВ - юго-восточный, Ю - южный, ЮЗ - юго-западный, З - западный, СЗ - северо-западный.
Видимость - горизонтальная дальность видимости в метрах или километрах. При видимости от 1 до 10 км при отсутствии осадков обычно наблюдается дымка, при ухудшении видимости до 1 км и менее - туман. В сухую погоду видимость может ухудшаться дымом, пылью или мглою.
Явления - указаны атмосферные явления, наблюдавшиеся в срок или в последний час перед сроком; фигурными скобками обозначены явления, наблюдавшиеся между сроками (за 1-3 часа до срока); квадратными скобками обозначены град или гололедные отложения с указанием их диаметра в мм.
Облачность - указаны через наклонную черту общая и нижняя облачность в баллах и высота нижней границы облаков в метрах; квадратными скобками обозначены формы облаков: Ci - перистые, Cs - перисто-слоистые, Cc - перисто-кучевые, Ac - высококучевые, As - высокослоистые, Sc - слоисто-кучевые, Ns - слоисто-дождевые, Cu - кучевые, Cb - кучево-дождевые. Подробнее классификацию облаков см. в Атласе облаков (PDF).
T - Температура воздуха - температура, измеренная на высоте 2 м над землей.
Td - Температура точки росы - температура, при понижении до которой содержащийся в воздухе водяной пар достигнет насыщения.
f - Относительная влажность воздуха - влажноcть воздуха, измеренная на высоте 2 м над землей.
Te - Эффективная температура - температура, которую ощущает одетый по сезону человек в тени. Характеристика душности погоды. При расчете учитывается влияние влажности воздуха и скорости ветра на теплоощущения человека.
Tes - Эффективная температура на солнце - температура, которую ощущает человек, с поправкой на солнечный нагрев. Характеристика знойности погоды. Зависит от высоты солнца над горизонтом, облачности и скорости ветра. Ночью, в пасмурную погоду, а также при ветре 12 м/с и более поправка равна нулю.
P - Атмосферное давление - приведенное к уровню моря атмосферное давление.
Po - Атмосферное давление - измеренное на уровне метеостанции атмосферное давление.
Tmin - Минимальная температура - минимум температуры воздуха на высоте 2 м над землей.
Tmax - Максимальная температура - максимум температуры воздуха на высоте 2 м над землей.
R - Количество осадков - Количество выпавших осадков за период времени, мм. При наведении курсора мыши на число - период времени, за который выпало указанное количество осадков.
R24 - Количество осадков - Количество выпавших осадков за 24 часа, мм.
S - Снежный покров - Высота снежного покрова, см. При наведении курсора мыши на число - состояние снежного покрова и степень покрытия местности в баллах.